User: anonymous   Login
Location: Allen Fire Department Station 4
(33.1073°N, 96.6988°W)
Time: 12:22:15
(UTC+00:00)
Language:

Aurora 2 Rocket - Orbit

View from above orbital plane
View from above orbital plane
View from above satellite
View from above satellite

Ground track
Ground track

The orbit data is extracted from the following two-line orbital elements,

1 21393U 91037B   22142.86772741  .00006055  00000-0  47180-3 0  9990
2 21393  24.9820  44.0177 0896316 153.8348 211.0381 13.54563964494912
Epoch (UTC): 22 May 2022 20:49:31
Eccentricity: 0.0896316
inclination: 24.9820°
perigee height: 389 km
apogee height: 1722 km
right ascension of ascending node: 44.0177°
argument of perigee: 153.8348°
revolutions per day: 13.54563964
mean anomaly at epoch: 211.0381°
orbit number at epoch: 49491

The dashed part of the orbit path shows where the satellite is in the earth's shadow,  

DLR